Location: L�tisburg
(47.3947°N, 9.0820°E)
Time: 23:30:18
(UTC+00:00)

ASTEX 1 - Pass Details

Date: 03 March 2021
Orbit: 720 x 743 km, 92.7° (Epoch: 14 April)

Event Time Altitude Azimuth Distance (km) Brightness Sun altitude
Rises 19:20:10 0° 6° (N) 3,150 6.8 -22.3°
Reaches altitude 10° 19:22:28 10° 7° (N) 2,223 6.0 -22.7°
Maximum altitude 19:27:24 86° 95° (E) 730 3.2 -23.5°
Enters shadow 19:30:15 25° 184° (S) 1,423 4.7 -24.0°
